Weather History for Kalispell, MT

Change the Weather History Date:

Monday, December 30, 2013

  Actual Average Record
Temperature  
Mean Temperature 27 °F 22 °F  
Max Temperature 37 °F 29 °F 48 °F (1929)
Min Temperature 16 °F 14 °F -35 °F (1968)
Degree Days  
Heating Degree Days 38 43  
Month to date heating degree days 1270 1268  
Since 1 July heating degree days 3347 3472  
Cooling Degree Days 0 0  
Month to date cooling degree days 0 0  
Year to date cooling degree days 264 147  
Moisture  
Dew Point 23 °F    
Average Humidity 89    
Maximum Humidity 100    
Minimum Humidity 78    
Precipitation  
Precipitation T in 0.05 in 0.52 in (1993)
Month to date precipitation 1.58 1.51  
Year to date precipitation 17.48 16.94  
Snow  
Snow T in - - ()
Month to date snowfall 22.2  
Year to date snowfall 43.6  
Since 1 July snowfall 33.5  
Snow Depth 3.00 in    
Sea Level Pressure  
Sea Level Pressure 30.16 in    
Wind  
Wind Speed 2 mph (SW)    
Max Wind Speed 12 mph    
Max Gust Speed 15 mph    
Visibility 8 miles    
Events Fog , Snow    
T = Trace of Precipitation, MM = Missing Value Source: NWS Daily Summary

Daily Weather History Graph

Daily Weather History Graph

Search for Another Location

Airport:

Trip Planner

Search our weather history database for the weather conditions in past years. The results will help you decide how hot, cold, wet, or windy it might be!

Date:

Astronomy

Dec. 30, 2013 Rise Set
Actual Time 8:28 AM MST 4:51 PM MST
Civil Twilight 7:51 AM MST 5:28 PM MST
Nautical Twilight 7:11 AM MST 6:07 PM MST
Astronomical Twilight 6:33 AM MST 6:45 PM MST
Moon 6:18 AM MST (12/30) 3:32 PM MST (12/30)
Length of Visible Light 9h 36m
Length of Day
8h 23m
Waning Crescent, 4% of the Moon is Illuminated
Dec 30
Waning Crescent
Jan 1
New
Jan 7
First Quarter
Jan 15
Full
Jan 23
Last Quarter

Hourly Weather History & Observations

Time (MST) Temp. Windchill Dew Point Humidity Pressure Visibility Wind Dir Wind Speed Gust Speed Precip Events Conditions
12:55 AM 32.0 °F 26.4 °F 27.0 °F 82% 30.25 in 10.0 mi SW 5.8 mph - N/A   Overcast
1:55 AM 30.9 °F 27.5 °F 26.1 °F 82% 30.25 in 10.0 mi WSW 3.5 mph - N/A   Overcast
2:55 AM 28.0 °F - 25.0 °F 88% 30.26 in 10.0 mi Calm Calm - N/A   Overcast
3:55 AM 26.1 °F - 24.1 °F 92% 30.27 in 10.0 mi Calm Calm - N/A   Overcast
4:55 AM 25.0 °F 20.7 °F 24.1 °F 96% 30.27 in 10.0 mi SSW 3.5 mph - N/A   Overcast
5:55 AM 24.1 °F 19.7 °F 21.0 °F 88% 30.27 in 10.0 mi West 3.5 mph - N/A   Scattered Clouds
6:55 AM 21.9 °F - 19.9 °F 92% 30.28 in 10.0 mi Calm Calm - N/A   Partly Cloudy
7:55 AM 19.0 °F 13.9 °F 18.0 °F 96% 30.29 in 8.0 mi SW 3.5 mph - N/A   Mostly Cloudy
8:37 AM 17.6 °F - 15.8 °F 93% 30.18 in 1.2 mi Calm Calm - N/A   Clear
8:39 AM 17.6 °F - 15.8 °F 93% 30.18 in 10.0 mi Calm Calm - N/A   Clear
8:55 AM 18.0 °F - 16.0 °F 92% 30.29 in 10.0 mi Calm Calm - N/A   Clear
9:14 AM 19.4 °F - 17.6 °F 93% 30.18 in 10.0 mi Calm Calm - N/A   Partly Cloudy
9:55 AM 19.0 °F - 17.1 °F 92% 30.29 in 10.0 mi Calm Calm - N/A   Partly Cloudy
10:06 AM 19.4 °F - 17.6 °F 93% 30.18 in 4.0 mi Calm Calm - N/A   Partly Cloudy
10:29 AM 19.4 °F - 17.6 °F 93% 30.18 in 2.0 mi Calm Calm - N/A   Mostly Cloudy
10:39 AM 19.4 °F - 17.6 °F 93% 30.18 in 4.0 mi Calm Calm - N/A   Mostly Cloudy
10:44 AM 17.6 °F - 17.6 °F 100% 30.18 in 0.5 mi Calm Calm - N/A Fog Light Freezing Fog
10:53 AM 19.4 °F - 17.6 °F 93% 30.18 in 0.5 mi Calm Calm - N/A Fog Light Freezing Fog
10:55 AM 19.0 °F - 17.1 °F 92% 30.29 in 0.5 mi Calm Calm - N/A Fog Light Freezing Fog
10:58 AM 19.4 °F - 17.6 °F 93% 30.18 in 6.0 mi Calm Calm - N/A   Mostly Cloudy
11:55 AM 23.0 °F - 21.0 °F 92% 30.26 in 10.0 mi Calm Calm - N/A   Scattered Clouds
12:55 PM 26.1 °F - 21.9 °F 84% 30.22 in 10.0 mi Calm Calm - N/A   Overcast
1:55 PM 28.0 °F - 24.1 °F 85% 30.19 in 10.0 mi Calm Calm - N/A   Overcast
2:55 PM 28.9 °F - 25.0 °F 85% 30.17 in 10.0 mi Calm Calm - N/A   Overcast
3:12 PM 30.2 °F - 24.8 °F 80% 30.07 in 4.0 mi Calm Calm - 0.00 in Snow Light Snow
3:21 PM 30.2 °F - 26.6 °F 86% 30.06 in 2.5 mi Calm Calm - 0.00 in Snow Light Snow
3:33 PM 28.4 °F - 24.8 °F 86% 30.06 in 1.5 mi Calm Calm - 0.00 in Snow Light Snow
3:40 PM 28.4 °F - 26.6 °F 93% 30.06 in 2.0 mi Calm Calm - 0.00 in Snow Light Snow
3:50 PM 28.4 °F - 26.6 °F 93% 30.06 in 6.0 mi Calm Calm - 0.00 in Snow Light Snow
3:55 PM 28.9 °F - 27.0 °F 92% 30.15 in 9.0 mi Calm Calm - 0.00 in   Overcast
4:55 PM 30.0 °F - 28.0 °F 92% 30.13 in 10.0 mi Calm Calm - N/A   Overcast
5:55 PM 30.0 °F - 27.0 °F 88% 30.11 in 10.0 mi Calm Calm - N/A   Overcast
6:55 PM 30.0 °F 25.2 °F 27.0 °F 88% 30.10 in 10.0 mi SE 4.6 mph - N/A   Overcast
7:44 PM 30.2 °F 22.6 °F 26.6 °F 86% 29.97 in 10.0 mi North 8.1 mph - N/A   Overcast
7:55 PM 30.9 °F 26.2 °F 28.0 °F 89% 30.08 in 10.0 mi North 4.6 mph - N/A   Overcast
8:55 PM 32.0 °F - 28.9 °F 88% 30.09 in 10.0 mi Calm Calm - N/A   Overcast
9:08 PM 30.2 °F - 28.4 °F 93% 29.97 in 10.0 mi Calm Calm - N/A   Overcast
9:55 PM 32.0 °F - 28.9 °F 88% 30.07 in 10.0 mi Calm Calm - N/A   Overcast
10:55 PM 33.1 °F 26.9 °F 28.9 °F 85% 30.06 in 10.0 mi South 6.9 mph - N/A   Overcast
11:55 PM 34.0 °F 28.0 °F 30.0 °F 85% 30.06 in 10.0 mi SW 6.9 mph - N/A   Overcast